Location: Unspecified
(41.1637°N, 24.2901°E)
Time: 03:16:52
(UTC+02:00)

ISS - Visible Passes

Search period start: 25 September 2022 00:00
Search period end: 05 October 2022 00:00
Orbit: 414 x 417 km, 51.6° (Epoch: 24 September)

Date Brightness Start Highest point End Pass type
(mag) Time Alt. Az. Time Alt. Az. Time Alt. Az.
25 Sep -1.2 19:00:19 10° NW 19:02:11 14° N 19:04:03 10° NNE visible
25 Sep -0.9 20:37:22 10° NNW 20:38:21 15° NNW 20:38:21 15° NNW visible
26 Sep -1.5 19:48:49 10° NNW 19:51:01 16° NNE 19:51:30 16° NNE visible
27 Sep -1.3 19:00:09 10° NNW 19:02:06 14° N 19:04:03 10° NE visible
27 Sep -1.0 20:36:32 10° NW 20:37:32 17° NNW 20:37:32 17° NNW visible
28 Sep -2.1 19:47:59 10° NW 19:50:43 24° NNE 19:50:43 24° NNE visible
29 Sep -1.8 18:59:25 10° NNW 19:01:54 19° NNE 19:03:55 12° ENE visible
29 Sep -1.0 20:35:42 10° NW 20:36:47 19° NW 20:36:47 19° NW visible
30 Sep -3.1 19:47:04 10° NW 19:50:01 43° NNE 19:50:01 43° NNE visible
01 Oct -2.6 18:58:27 10° NW 19:01:29 30° NNE 19:03:18 18° ENE visible
01 Oct -0.9 20:35:06 10° WNW 20:36:11 18° WNW 20:36:11 18° WNW visible
02 Oct -3.7 19:46:14 10° WNW 19:49:32 70° SW 19:49:32 70° SW visible
03 Oct -3.8 18:57:29 10° NW 19:00:50 67° NE 19:02:59 20° ESE visible
03 Oct -0.6 20:35:19 10° W 20:35:52 12° WSW 20:35:52 12° WSW visible
04 Oct -1.9 19:45:47 10° WNW 19:48:34 24° SW 19:49:26 22° SSW visible
